Location: Castle Hill Houses
(40.8186°N, 73.8497°W)
Time: 21:13:31
(UTC+00:00)

ALOS - Pass Details

Date: 26 January 2020
Orbit: 683 x 686 km, 97.8° (Epoch: 17 February)

Event Time Altitude Azimuth Distance (km) Brightness Sun altitude
Rises 09:31:08 0° 22° (NNE) 3,055 5.9 -30.3°
Reaches altitude 10° 09:33:35 10° 32° (NNE) 2,135 5.1 -29.8°
Maximum altitude 09:37:49 33° 97° (E) 1,137 3.9 -29.0°
Drops below altitude 10° 09:42:00 10° 161° (SSE) 2,120 5.0 -28.2°
Sets 09:44:25 0° 171° (S) 3,030 5.7 -27.8°
